Location: Cahas Mountain Overlook
(37.0833°N, 80.1000°W)
Time: 17:42:20
(UTC-05:00)

Vanguard 3 - Pass Details

Date: 14 December 2023
Orbit: 508 x 3239 km, 33.4° (Epoch: 23 February)

Event Time Altitude Azimuth Distance (km) Brightness Sun altitude
Rises 17:14:37 0° 220° (SW) 6,949 13.4 -2.7°
Reaches altitude 10° 17:19:27 10° 214° (SW) 6,080 12.7 -3.5°
Maximum altitude 17:37:26 45° 150° (SSE) 3,809 10.5 -6.8°
Drops below altitude 10° 17:52:09 10° 85° (E) 5,076 10.6 -9.5°
Enters shadow 17:52:40 - 84° (E) 5,170 10.6 -9.6°
